Theta_e
308 309 309 309 309 310 310 310 310 310 310 310 310 310 310 311 310 310 310 310 310 310 310 310 310 311 310 310 310 309 308 308 310 312 314 314 305 307 311 313 314 312 311 310 311 309 310 312 313 313 313 314 316 317 316 315 314 314 316 316 314 314 314 315 317 314 313 314 315 315 317 319 317 319 319 320 335 346 346 347 345 344 344 343 343 341 340 339
308 308 309 309 309 309 309 310 310 310 310 310 311 310 311 311 311 310 311 311 311 310 310 310 310 311 310 310 309 308 308 309 311 314 317 308 306 309 310 313 314 312 312 311 311 309 310 314 314 313 314 316 315 315 315 314 314 314 318 317 314 316 315 313 314 314 314 315 315 316 317 318 316 317 318 317 331 350 355 349 345 345 344 341 341 340 339 338
308 308 308 309 309 309 309 309 310 310 310 311 310 310 311 310 311 311 311 311 311 311 311 311 311 310 310 310 308 307 308 310 318 326 319 308 309 309 312 315 313 314 314 313 311 308 309 312 312 312 314 316 315 314 314 314 314 313 315 314 315 317 316 315 314 315 315 314 316 317 316 317 315 315 318 316 328 350 359 352 349 347 344 342 340 339 338 338
308 308 308 308 309 309 309 309 309 309 310 310 310 310 310 310 311 311 311 311 311 311 310 310 311 310 310 309 307 307 309 315 326 327 318 313 310 309 313 315 314 315 314 312 311 308 308 309 309 311 313 314 315 314 313 314 313 313 314 314 316 316 316 315 315 315 315 315 315 315 317 316 315 316 318 316 326 345 351 350 351 346 343 342 340 339 338 339
308 308 308 308 308 308 308 309 309 309 309 310 310 310 310 310 310 310 311 311 311 311 310 310 310 310 309 307 306 307 312 321 322 320 318 316 312 311 313 315 316 316 312 310 309 308 308 308 309 311 313 313 313 312 314 313 312 313 314 314 315 314 315 315 315 314 314 316 315 316 316 315 315 315 317 316 321 339 346 346 347 344 343 342 340 339 339 338
308 308 308 308 309 308 308 308 308 309 309 309 310 310 310 310 310 310 310 310 310 310 310 310 309 309 308 306 307 309 317 323 318 317 318 317 314 313 313 315 316 312 310 308 307 308 309 310 312 313 314 313 313 313 314 313 311 312 313 313 313 313 314 314 314 315 315 316 315 316 315 314 317 314 322 332 332 339 344 344 344 343 342 341 341 341 339 339
307 308 308 308 309 308 308 309 308 309 309 309 309 310 310 310 310 310 310 310 310 310 310 309 309 309 307 307 311 312 319 324 317 317 318 315 315 314 314 314 313 310 309 307 307 308 310 313 314 315 313 312 313 314 313 312 311 312 312 312 313 313 314 314 313 314 315 315 315 317 314 315 316 311 330 350 346 344 345 343 345 343 342 342 342 340 338 338
307 307 307 308 308 308 308 308 309 309 309 309 308 309 309 310 310 310 310 310 309 310 310 309 310 309 307 310 315 318 324 325 319 319 318 313 312 314 314 313 311 310 308 307 308 309 312 314 315 315 312 312 313 312 311 311 311 311 311 312 313 313 313 314 313 313 315 314 314 316 313 315 316 314 337 352 347 346 345 344 345 343 343 342 340 339 337 336
307 307 307 308 308 308 307 307 309 309 309 309 308 309 309 310 310 309 310 309 309 310 309 309 310 308 308 310 315 323 327 322 318 318 315 313 311 313 314 312 310 309 306 307 309 311 314 316 316 314 312 312 311 311 311 310 311 313 311 312 312 312 314 313 313 314 315 314 314 314 314 317 315 316 337 348 347 347 346 346 345 343 343 341 339 337 336 335
307 307 307 308 308 308 307 308 309 309 309 309 309 309 309 309 309 309 309 308 309 309 309 309 308 307 309 312 317 323 322 316 317 315 311 312 310 311 312 310 309 306 307 309 310 312 315 316 317 314 311 310 311 311 311 310 312 313 312 312 312 312 314 313 314 315 314 314 314 314 313 317 314 314 335 345 346 346 346 346 345 344 343 340 338 336 334 335
307 307 307 308 307 307 307 308 308 308 308 309 309 309 308 308 308 308 308 307 308 308 308 308 307 308 310 314 320 321 318 315 315 312 310 310 308 309 310 309 307 305 308 311 311 312 314 314 315 315 312 312 312 311 311 311 312 314 312 312 313 314 314 314 314 314 315 314 314 314 313 317 313 314 337 345 345 345 346 346 344 344 342 338 336 335 334 334
307 307 307 306 306 307 307 308 307 307 309 309 308 308 307 306 306 306 306 307 307 306 307 307 307 310 311 315 321 318 315 316 314 312 310 309 307 307 308 308 308 306 309 311 312 313 313 314 314 313 313 312 312 312 313 313 313 315 314 312 313 314 314 315 316 314 314 313 316 315 311 317 312 314 336 344 342 345 345 344 344 342 340 337 336 335 334 333
306 307 306 306 306 307 307 306 307 308 307 306 306 306 305 305 304 304 305 307 307 305 306 306 308 310 313 322 323 314 314 316 313 312 310 309 309 307 308 309 309 309 309 311 312 312 314 314 313 313 313 313 312 312 313 313 313 314 313 312 312 314 313 314 315 314 313 313 315 314 311 316 314 320 337 342 340 343 343 344 342 341 339 336 336 335 334 333
306 306 306 306 306 306 306 306 307 306 305 304 304 304 303 303 302 303 306 310 308 305 306 306 308 311 317 324 317 312 315 317 315 312 310 310 311 309 309 311 312 311 310 311 313 313 314 313 311 312 313 313 313 313 314 313 314 314 314 315 313 311 312 313 313 314 314 314 315 312 311 313 314 326 339 339 339 343 343 343 341 339 338 336 337 335 335 334
306 306 306 306 305 304 305 306 305 303 302 303 303 302 302 302 303 305 308 311 309 307 306 306 308 312 320 324 316 314 316 317 317 313 311 312 310 310 311 312 313 313 312 312 312 313 313 313 312 313 313 313 313 313 314 313 314 313 313 317 318 311 311 313 313 315 313 313 315 311 313 313 313 328 339 336 338 341 341 342 340 339 339 337 336 335 335 335
304 305 306 304 303 304 304 303 302 301 302 302 301 302 302 304 308 309 310 311 309 308 307 310 311 312 320 323 316 316 316 315 316 312 312 312 311 312 311 311 313 313 313 313 314 313 313 313 312 314 313 312 313 314 314 316 318 319 314 315 319 314 310 312 312 314 313 312 314 312 314 315 314 325 334 334 336 338 339 341 340 339 338 337 336 335 335 335
302 303 304 304 303 302 301 301 301 301 301 301 302 302 302 308 313 313 312 308 307 308 308 311 312 312 319 319 316 318 316 315 314 313 312 312 312 313 312 312 312 312 313 312 312 313 312 312 312 315 318 316 316 317 316 317 319 324 320 315 316 314 311 312 313 314 312 312 313 312 315 318 316 324 332 332 333 335 337 339 339 339 337 336 336 334 335 335
301 301 303 304 303 301 301 301 301 300 301 301 301 301 303 309 314 315 312 309 310 311 311 312 312 315 320 317 318 319 315 313 314 313 313 312 313 313 312 312 311 312 311 311 313 312 311 315 316 318 321 320 318 318 318 318 319 321 321 320 319 317 313 312 313 314 312 312 314 313 314 319 319 323 332 332 332 334 335 338 338 338 337 336 336 335 334 334
300 300 301 302 302 300 300 300 300 300 301 301 301 303 307 312 316 317 312 311 316 316 314 316 316 319 320 317 316 318 315 314 313 312 312 313 312 312 312 311 311 311 311 312 315 313 312 316 317 316 317 318 317 318 317 317 317 315 318 321 320 316 315 314 313 314 313 312 314 315 314 318 318 321 327 329 331 332 333 337 338 337 337 335 336 336 334 334
300 300 300 302 303 301 299 300 301 300 301 301 302 307 315 321 322 322 317 315 318 316 312 316 318 317 315 313 314 315 316 315 313 312 312 313 311 311 311 310 311 311 312 315 317 318 316 314 317 317 318 321 322 321 320 317 318 317 317 318 316 315 314 315 315 312 314 315 313 317 318 318 319 320 323 326 330 331 332 337 337 337 337 336 336 336 334 334
300 300 300 301 302 303 301 300 301 301 302 302 303 311 319 322 322 322 322 321 318 316 315 316 316 315 314 312 313 314 314 313 313 312 312 312 312 312 312 311 311 312 315 315 317 320 316 313 317 319 321 324 324 326 325 322 323 323 320 316 314 316 315 315 318 315 320 324 317 319 322 319 321 321 323 329 331 330 333 336 336 336 337 336 336 335 335 334
300 300 300 300 302 304 302 301 301 302 303 303 306 312 316 315 316 315 317 320 318 317 317 316 315 315 315 314 315 315 314 314 314 312 313 312 311 312 313 312 311 314 317 315 315 316 315 317 318 319 319 320 322 326 328 326 325 321 317 317 315 315 316 319 324 321 323 327 318 320 322 322 328 326 323 332 333 329 331 334 334 335 337 336 336 335 334 333
300 300 300 300 301 303 303 302 302 303 305 306 306 310 313 311 313 312 313 319 318 317 318 318 317 317 317 317 317 316 315 314 314 313 313 311 312 313 312 313 312 313 315 315 315 314 316 319 318 317 317 318 324 326 329 328 326 325 317 313 316 316 314 316 324 328 327 325 320 323 326 327 333 329 323 327 332 332 330 332 333 332 335 335 335 335 333 333
300 300 300 301 301 302 304 303 303 306 307 308 309 312 313 313 314 313 314 320 320 317 317 317 317 317 318 318 317 316 315 314 314 314 312 312 312 312 312 313 311 311 312 314 317 315 315 317 316 318 318 322 322 321 331 327 324 337 329 315 316 316 314 316 322 334 337 335 333 331 330 334 334 326 324 324 326 332 331 330 332 331 333 334 334 335 333 332
299 300 300 300 301 302 303 302 306 309 309 309 313 314 311 313 317 314 316 324 327 323 319 316 317 316 317 317 317 316 315 314 314 313 312 312 312 311 312 311 311 312 312 311 314 314 314 314 317 320 321 322 319 319 333 329 320 332 337 327 321 318 319 320 324 334 334 330 334 327 323 337 341 329 328 325 322 328 330 332 332 330 331 332 334 335 332 332
299 300 300 300 301 301 304 309 311 309 306 308 313 312 310 314 317 316 321 329 331 327 320 316 317 317 316 317 315 315 315 315 314 313 313 312 312 312 312 312 313 313 313 314 315 315 315 315 317 325 325 323 322 318 325 331 321 319 332 336 326 323 324 322 324 327 325 322 328 327 322 332 338 331 331 327 322 323 324 327 329 327 329 331 333 333 332 332
299 299 299 300 300 300 306 312 310 305 305 307 309 309 312 315 315 318 326 328 329 327 319 315 315 316 316 315 315 316 317 318 315 313 313 313 313 313 313 314 314 311 314 317 317 320 321 317 318 325 325 321 321 319 321 331 323 319 337 337 322 324 326 326 326 321 322 323 328 337 330 325 329 329 329 325 320 321 321 322 324 325 327 330 332 332 331 331
299 299 299 300 300 300 305 308 305 305 308 310 311 312 315 315 314 322 328 324 324 321 315 312 313 314 313 315 314 315 317 318 315 314 314 313 313 312 313 313 312 314 316 315 316 324 323 319 318 321 322 319 321 325 326 326 319 323 341 332 318 322 325 329 326 320 325 322 322 337 329 320 331 336 330 325 320 321 323 321 322 324 327 331 333 332 331 330
299 299 299 300 300 301 308 309 306 309 312 312 315 317 315 314 319 329 328 323 321 318 313 312 313 312 313 314 313 314 315 314 315 316 313 313 313 313 313 312 312 313 314 314 319 324 321 319 320 320 322 322 324 328 325 322 320 325 330 322 319 322 325 328 324 326 335 324 322 337 325 316 331 341 334 325 321 323 322 321 323 325 328 331 333 332 331 329
299 299 300 300 300 303 308 306 307 311 312 311 316 315 313 321 331 330 325 322 321 319 314 312 312 314 315 314 313 314 314 314 315 314 313 313 314 312 313 313 313 314 319 321 320 319 316 317 320 319 321 325 324 323 320 317 319 321 322 321 323 326 331 337 336 332 328 324 330 337 327 320 327 336 337 325 323 328 324 321 323 326 330 332 331 331 330 329
299 299 300 300 300 303 304 303 307 313 310 309 315 316 318 328 332 330 327 323 322 324 316 313 313 314 315 315 315 315 314 315 315 313 313 314 313 313 314 315 315 318 328 330 320 319 319 316 317 318 319 318 316 315 316 315 315 318 322 322 324 327 332 339 342 331 320 326 334 332 326 325 324 333 339 329 325 326 322 322 323 324 327 327 328 328 328 330
299 300 300 300 300 301 302 304 307 309 307 309 317 324 329 328 325 328 330 324 326 328 317 313 316 314 314 314 315 316 315 316 316 313 314 314 315 314 313 318 320 317 323 327 321 323 328 322 316 316 316 315 313 314 313 314 316 318 321 324 323 322 324 331 334 329 326 328 329 326 323 323 327 334 333 327 326 321 319 322 321 322 325 325 327 329 329 331
300 300 300 301 301 301 302 303 303 304 304 310 322 332 331 326 326 329 327 321 324 324 316 316 317 315 316 315 314 315 315 316 316 314 314 315 316 316 312 318 322 318 321 325 320 319 325 327 320 314 315 315 314 315 313 314 317 314 316 322 322 321 322 327 328 326 328 329 327 325 321 323 329 331 327 324 321 319 319 319 321 325 328 328 328 328 329 330
300 301 301 302 302 302 302 302 302 302 303 312 328 332 324 323 328 328 324 322 319 317 317 317 317 316 317 316 315 315 314 316 316 315 314 314 316 317 315 313 315 318 319 319 319 318 319 325 325 318 317 315 313 315 316 320 317 313 316 318 319 324 327 327 327 327 328 328 328 325 323 328 328 323 325 323 317 319 321 322 325 328 328 329 328 327 328 328
301 301 302 303 302 302 301 303 305 301 305 322 333 328 323 324 327 324 323 323 317 315 316 315 315 317 318 317 316 314 314 315 315 314 315 315 317 321 320 315 313 316 317 317 321 319 313 319 325 319 315 315 313 313 315 317 316 316 317 314 314 324 330 326 326 334 335 328 326 325 325 330 330 327 328 324 319 323 324 325 328 329 328 328 328 328 328 327
301 300 303 304 303 303 300 305 308 303 311 327 328 324 326 327 325 321 319 317 313 313 313 313 316 318 319 320 317 314 314 314 315 315 317 317 316 318 317 316 314 313 316 322 324 318 314 319 322 314 312 314 313 313 313 312 317 319 314 315 318 319 325 325 322 327 330 327 326 325 322 323 327 328 325 321 322 324 324 327 327 328 329 328 328 328 326 326
302 303 308 308 306 304 301 306 309 307 319 328 324 325 327 323 319 317 315 314 313 313 312 314 321 320 319 320 319 315 312 315 317 316 320 322 319 318 314 313 316 312 313 320 320 319 320 321 321 315 311 313 312 313 314 313 318 318 311 317 321 314 321 332 326 321 320 324 327 324 322 322 323 328 327 322 322 320 322 327 326 328 329 327 327 326 325 325
304 308 312 311 306 303 304 309 310 313 325 328 325 328 325 318 316 314 313 313 312 312 311 313 320 321 317 318 321 317 313 318 322 317 318 320 321 323 316 311 315 312 312 319 318 320 324 319 320 319 312 313 315 314 316 316 316 314 312 317 318 316 323 327 323 321 321 323 323 320 322 322 321 326 328 324 322 320 321 325 327 328 329 328 328 326 326 327
306 313 319 315 308 305 306 312 314 318 328 327 325 327 322 316 316 313 312 312 311 311 311 313 315 317 318 319 320 318 315 317 319 317 315 314 321 326 318 313 315 311 313 319 318 323 325 319 321 322 313 312 320 319 316 317 317 316 317 315 317 323 327 320 318 322 322 321 322 320 322 325 328 329 326 323 322 321 323 326 327 326 327 328 328 327 328 328
308 316 321 315 310 307 307 313 318 322 327 327 325 323 318 316 315 313 313 312 311 312 313 315 313 313 317 317 316 319 320 316 315 317 316 314 320 322 315 313 313 311 315 317 318 324 325 318 321 326 318 315 319 317 312 312 314 316 320 317 317 324 323 318 320 321 320 322 326 325 323 328 337 333 324 322 321 321 326 328 327 326 326 326 326 327 327 327
309 315 317 312 310 311 312 317 321 323 325 324 323 319 316 317 315 313 313 311 310 311 311 313 314 314 315 314 315 318 319 317 314 316 317 317 320 319 313 312 311 312 320 321 320 324 323 321 324 325 322 318 318 313 310 311 310 311 317 318 321 328 324 320 321 322 322 323 327 330 327 329 336 332 324 324 323 324 326 326 327 326 325 325 325 326 327 328
312 317 316 310 311 314 317 321 321 321 322 322 321 318 316 317 314 313 312 311 309 309 310 312 313 314 313 313 315 315 316 316 314 317 321 320 319 316 312 313 311 313 321 321 316 320 328 331 326 321 318 314 312 310 309 311 311 312 316 317 320 327 330 330 330 328 324 318 322 331 330 329 337 334 326 325 326 326 324 325 327 325 324 325 325 325 327 328
314 315 313 309 312 316 320 323 320 317 319 320 317 314 314 314 313 312 311 311 310 311 312 313 311 311 312 312 313 312 314 316 315 318 321 318 317 316 312 314 315 315 320 321 318 320 329 328 319 319 325 322 315 313 313 312 313 316 317 319 318 318 325 332 333 335 328 315 318 326 321 325 337 332 323 323 325 325 323 323 324 323 323 324 323 325 327 327
311 311 313 311 311 316 321 322 321 320 321 318 312 312 313 312 311 311 311 311 311 312 313 312 311 312 312 312 313 312 312 315 315 316 317 315 314 316 314 314 316 316 319 322 321 322 323 322 322 324 326 327 324 321 320 315 313 316 315 316 316 315 322 325 324 333 329 315 322 329 322 325 332 324 320 323 324 323 323 322 322 322 322 322 321 323 324 325
311 313 316 312 309 315 321 320 319 322 323 317 314 315 313 312 312 312 311 311 310 311 312 311 310 311 311 313 315 312 310 314 316 315 314 314 313 314 314 314 314 315 320 324 326 325 322 326 336 334 323 321 326 325 319 312 313 317 315 314 315 315 319 320 321 331 328 316 323 332 328 329 328 319 321 325 323 323 323 322 321 322 321 321 321 321 322 324
314 315 315 313 310 313 317 315 311 314 317 314 314 318 315 313 313 312 311 311 310 311 311 309 311 313 313 315 316 313 311 313 316 316 315 315 313 312 313 316 315 316 322 326 328 329 325 324 334 339 329 325 326 322 314 309 312 314 311 313 317 317 319 320 322 327 325 321 326 329 327 328 320 316 320 325 324 324 323 322 322 322 322 322 322 322 322 322
313 313 311 310 311 312 314 313 310 310 312 312 313 316 315 313 313 312 312 311 310 311 312 310 310 313 315 316 316 315 314 314 316 317 316 315 315 313 312 314 317 321 323 322 324 331 327 319 320 326 324 319 316 313 309 308 309 309 309 313 316 318 321 320 316 316 317 321 325 324 323 322 316 315 318 319 321 323 323 323 323 322 321 320 320 322 322 321
309 311 309 308 311 314 313 312 311 310 311 312 313 312 312 313 313 311 311 313 311 311 313 311 308 308 309 312 313 313 315 316 317 316 315 315 317 318 316 313 314 320 320 317 322 330 328 320 314 314 314 312 312 311 310 309 308 308 311 313 313 317 319 315 312 314 317 318 319 317 318 317 313 313 315 314 317 320 320 319 318 319 321 320 320 320 320 320
305 307 308 307 309 313 314 312 313 311 309 312 314 310 308 310 312 309 309 314 314 310 312 311 308 306 305 307 310 311 312 315 316 313 312 314 317 320 318 315 314 316 316 315 317 322 325 320 314 315 315 313 313 312 310 310 310 310 311 312 314 317 318 315 313 315 318 317 317 317 316 314 311 311 313 313 313 314 314 313 313 314 316 320 323 323 322 322
301 303 305 306 308 312 313 311 312 310 307 309 311 309 307 308 310 308 306 310 312 310 310 311 308 305 304 304 307 307 307 309 310 310 309 311 314 315 313 313 313 313 314 315 315 318 322 317 316 324 323 316 313 312 310 310 312 313 313 313 317 317 317 318 317 317 318 315 313 316 317 313 311 310 311 311 310 311 311 311 311 310 310 313 317 320 322 324
299 300 301 305 307 308 308 307 308 308 306 307 308 308 307 306 308 309 308 307 308 308 308 310 307 305 304 305 305 305 305 305 306 306 307 308 309 310 309 310 310 311 313 315 316 320 322 316 316 326 325 316 312 311 311 313 315 317 317 315 318 317 313 314 314 314 317 315 314 318 316 311 310 311 310 310 309 309 309 309 310 309 308 309 312 314 317 320
300 300 301 305 307 305 304 304 304 306 306 306 306 305 306 306 306 309 311 308 306 306 306 307 307 306 305 306 306 305 304 304 305 304 305 306 305 306 307 307 307 307 309 313 315 318 324 321 318 322 323 315 312 314 317 318 317 319 317 313 314 315 312 311 310 309 312 314 316 317 312 307 308 309 309 309 308 308 308 308 309 308 308 308 310 312 312 314
Wind_Speed
11 11 10 10 10 10 10 11 10 10 10 10 10 10 11 11 11 11 10 11 11 11 11 11 11 13 13 13 13 13 16 17 17 10 8 11 11 9 10 7 4 4 7 8 5 3 3 3 7 7 3 3 2 2 3 4 2 2 2 3 4 4 5 3 2 1 4 7 8 8 4 6 2 4 2 6 9 8 8 7 6 9 10 13 21 32 33 31
12 11 11 11 11 10 10 11 11 11 10 11 11 10 11 11 10 10 10 10 11 11 10 11 12 12 12 12 12 13 16 17 15 13 15 12 7 11 14 8 7 6 6 7 7 6 3 2 4 3 1 1 2 2 2 2 2 3 2 2 5 5 4 1 2 3 4 6 7 6 5 5 1 3 1 4 5 7 10 5 6 12 13 16 22 28 27 29
12 12 11 11 11 11 11 11 11 11 11 10 11 11 11 10 10 10 10 10 10 10 10 11 11 11 11 12 12 12 15 13 8 9 9 9 11 14 15 12 10 8 8 8 6 7 7 3 6 3 1 2 3 2 2 2 2 2 3 3 5 5 5 4 3 5 6 7 5 5 6 5 2 3 1 5 6 5 8 5 5 11 13 15 15 18 22 22
12 12 12 11 11 11 11 11 11 11 11 11 11 11 11 10 10 10 10 10 10 10 10 10 11 11 11 11 10 11 11 6 3 5 2 4 10 14 17 15 13 13 12 9 7 7 7 5 6 3 1 3 3 2 3 3 3 2 4 5 6 5 6 7 7 6 6 8 5 3 4 6 6 3 1 4 5 1 5 8 9 14 16 17 15 14 16 16
12 12 12 12 11 12 12 11 11 11 11 11 11 11 11 10 10 10 10 9 10 10 10 10 10 10 10 10 8 8 6 2 2 5 3 4 6 11 16 14 13 14 12 10 8 5 6 5 1 1 2 4 3 1 3 6 3 2 4 6 8 6 5 7 7 7 6 7 6 2 3 3 5 4 4 1 5 4 5 7 12 18 19 19 17 14 13 12
13 13 12 12 12 12 12 11 11 11 11 11 11 11 11 10 10 10 10 10 10 10 10 10 9 8 9 10 6 4 1 1 4 5 3 5 5 9 12 13 13 13 13 10 6 3 3 2 2 2 2 3 4 4 5 5 4 3 6 6 9 8 6 7 6 5 5 4 4 2 0 1 4 5 4 2 3 5 3 9 13 15 16 19 17 13 12 11
13 13 12 12 12 12 12 12 12 12 12 12 11 11 10 10 10 10 11 10 10 10 9 9 9 8 10 8 2 2 1 4 8 5 4 5 6 9 12 13 15 14 12 9 6 4 1 1 2 3 2 4 4 6 6 3 5 5 6 7 9 9 8 10 7 5 6 5 6 3 0 1 1 3 2 3 1 3 10 12 14 14 15 18 15 12 12 11
14 13 13 12 12 12 12 12 12 12 12 12 11 11 10 10 10 11 10 10 10 9 9 9 8 8 9 5 1 1 2 6 7 4 6 6 8 11 13 14 15 15 12 12 10 5 2 1 4 3 2 5 4 4 4 2 2 5 7 9 8 8 9 10 8 6 7 6 7 5 2 5 5 2 3 3 6 11 14 13 14 15 16 15 14 13 12 11
14 13 13 12 12 12 12 12 12 12 12 12 11 10 10 10 10 11 10 10 9 9 8 7 7 7 6 4 1 2 3 4 2 3 7 8 10 11 14 14 15 15 13 13 9 5 2 3 5 3 2 4 4 5 3 1 4 6 8 8 8 9 10 9 7 6 7 5 5 6 4 7 6 4 4 2 9 13 13 13 14 16 16 14 13 12 11 12
14 13 13 12 12 13 12 12 12 12 12 12 12 11 11 10 10 10 10 10 8 8 8 5 6 5 4 3 1 0 4 2 2 5 6 9 10 13 15 13 14 16 12 9 9 8 6 6 5 2 3 4 3 4 3 4 4 5 6 7 8 10 9 7 6 6 5 3 5 5 6 7 4 4 2 1 8 14 14 13 13 14 14 13 12 10 11 11
15 14 13 13 13 12 11 12 12 12 12 13 12 11 11 11 10 10 10 9 8 8 6 4 4 3 4 2 2 2 4 3 4 5 5 8 10 13 16 14 14 17 14 7 10 13 9 10 6 2 4 3 2 5 4 4 3 6 6 7 8 7 6 4 3 4 2 3 4 5 5 4 2 3 8 7 8 14 16 14 12 13 12 12 12 10 9 9
15 14 14 13 13 11 11 12 12 12 12 12 12 11 11 11 10 9 9 8 7 6 3 3 2 1 4 1 4 7 5 3 3 4 4 6 7 9 13 13 13 16 14 6 7 13 13 15 8 3 6 2 3 4 4 5 5 8 5 4 7 5 5 6 4 3 1 3 3 2 3 5 3 3 12 13 9 11 15 14 12 12 10 10 10 8 7 8
16 15 14 13 13 11 11 11 11 11 11 12 12 12 11 11 10 9 8 7 6 5 2 2 1 0 2 2 7 10 6 4 3 6 5 5 3 6 11 12 11 13 14 11 11 14 16 16 9 8 7 1 2 3 4 6 4 6 4 1 4 6 6 7 4 5 3 3 3 3 2 7 5 4 15 14 12 13 14 13 11 11 10 9 9 8 7 9
17 16 15 14 12 11 10 10 10 10 10 11 12 11 10 9 10 8 8 7 4 3 2 2 1 1 0 5 10 10 11 9 7 12 9 7 4 6 11 12 12 13 15 17 18 18 19 18 9 5 3 2 2 3 5 6 2 3 4 3 3 2 6 6 4 4 4 3 5 5 4 8 3 10 17 14 15 16 14 12 11 11 10 9 9 8 8 8
18 17 15 13 12 10 9 9 9 9 10 11 11 11 9 8 8 7 6 5 2 2 2 2 3 2 1 7 12 9 7 4 11 18 13 9 8 7 10 15 15 16 18 19 20 20 20 16 6 1 2 2 2 4 5 4 3 2 2 4 3 2 6 7 4 6 6 4 6 7 5 7 3 12 17 13 14 15 15 12 11 11 11 10 8 8 8 6
19 18 16 14 12 10 9 8 8 9 10 11 11 10 8 7 6 5 5 4 2 4 3 1 3 3 1 5 8 7 5 5 13 20 16 10 10 11 12 14 14 16 18 19 17 16 14 7 2 2 1 3 3 3 3 4 5 4 1 3 4 4 4 6 6 6 10 5 3 8 5 4 3 12 16 15 15 14 15 12 12 12 11 10 8 8 7 5
21 20 18 15 12 10 8 8 7 8 9 10 10 9 8 7 5 4 3 1 1 4 4 1 1 2 3 6 6 5 5 7 12 17 17 13 13 14 12 8 9 11 11 12 12 10 6 2 2 1 2 2 2 4 4 3 4 4 2 1 4 5 4 5 7 6 9 8 6 8 7 3 2 9 14 14 15 15 15 13 12 11 9 9 8 8 7 8
23 22 20 18 14 10 8 7 7 8 9 9 10 10 9 7 5 3 1 4 4 2 2 3 2 0 3 5 5 3 4 9 13 14 16 16 15 16 13 7 5 4 2 4 6 4 1 2 1 1 3 3 3 5 2 3 4 3 3 2 3 4 4 7 9 6 7 10 9 7 7 6 0 9 12 12 14 13 13 13 12 11 10 9 8 8 8 9
24 24 22 20 16 11 8 7 7 8 9 9 8 9 8 4 2 1 3 4 4 1 2 3 3 1 2 5 5 4 5 10 12 12 16 17 15 15 13 9 3 3 2 1 4 3 1 1 2 1 3 3 2 5 6 8 7 7 5 4 4 4 4 8 12 7 9 9 8 9 8 6 2 7 10 9 10 10 11 11 11 10 10 9 8 8 9 10
24 24 24 22 18 13 10 8 8 9 9 9 7 6 4 1 2 1 2 3 4 6 6 5 7 5 7 7 5 6 6 9 9 10 17 18 13 8 6 6 2 3 3 3 3 3 3 2 2 4 6 7 8 8 8 8 8 6 2 2 3 3 5 8 8 3 8 8 4 6 7 2 2 5 7 5 5 7 10 10 10 10 9 9 10 10 9 8
24 23 23 23 21 15 11 10 9 9 9 9 7 3 1 2 1 2 2 5 8 10 10 9 11 11 12 11 12 10 6 6 8 9 18 18 10 5 3 4 4 2 4 4 3 2 3 3 7 9 10 10 9 7 7 7 5 1 2 1 5 2 4 8 5 4 4 6 0 1 8 5 4 3 5 9 8 8 11 12 11 12 11 9 11 11 9 6
23 23 23 23 22 18 13 11 10 11 11 10 6 1 4 5 4 4 3 4 8 11 13 12 11 13 15 17 22 16 6 5 7 6 13 13 7 5 3 2 5 4 3 2 1 2 1 4 11 13 10 6 6 4 5 5 2 1 1 1 4 3 4 7 5 6 5 5 1 0 6 5 7 3 4 13 12 9 12 14 14 14 11 9 11 12 10 7
23 23 23 22 22 20 15 11 11 13 12 9 6 5 7 11 11 14 8 3 8 7 10 10 9 9 11 14 18 12 5 5 6 6 11 11 5 5 3 3 5 4 2 3 4 3 2 7 12 12 7 5 5 4 3 1 2 1 1 2 2 4 1 4 6 6 5 3 1 2 3 2 5 4 2 9 10 9 10 11 11 12 13 13 13 12 11 11
22 22 23 22 22 21 16 13 12 10 9 9 10 10 14 18 17 17 7 1 7 5 7 11 9 6 10 11 9 7 6 6 6 6 11 11 4 3 4 4 4 3 4 5 6 5 7 10 7 5 6 8 6 5 3 3 3 3 3 3 3 2 2 4 5 5 6 5 3 5 5 4 4 5 2 0 4 7 8 8 9 9 10 10 9 10 12 13
22 22 22 22 22 20 17 13 6 5 9 11 12 13 19 19 12 8 2 1 4 5 4 7 6 6 13 10 7 7 5 6 7 7 12 13 8 4 3 3 3 4 7 5 5 5 10 12 6 4 5 8 7 5 4 5 0 4 4 6 6 4 5 6 5 5 6 6 3 5 3 5 4 4 4 3 3 8 8 10 11 8 6 7 8 10 10 10
22 21 21 22 22 22 17 7 3 7 11 11 11 13 17 15 9 4 2 3 3 5 2 3 4 7 10 7 6 4 2 5 9 11 14 16 14 7 2 2 2 5 6 4 2 2 7 9 7 6 6 7 7 5 4 6 5 2 5 6 6 5 4 4 2 3 3 2 3 4 5 4 5 4 6 3 5 9 7 8 10 9 8 9 9 10 10 10
23 21 21 21 21 22 13 4 9 11 7 9 11 12 12 13 8 4 2 5 3 4 2 1 1 5 7 6 7 6 2 5 5 9 14 17 13 6 4 4 2 3 3 1 1 2 4 3 5 5 5 6 4 3 5 6 7 3 7 5 6 5 6 5 4 4 2 3 4 4 5 2 4 5 5 1 4 4 6 6 7 9 11 11 10 11 11 11
23 22 21 19 19 19 12 9 12 8 5 11 14 10 11 14 6 2 4 2 3 2 2 2 2 4 4 3 7 7 6 3 2 4 12 20 14 5 5 7 4 4 3 2 2 6 3 3 7 6 4 4 3 5 7 6 5 6 7 5 5 6 7 6 6 4 0 1 4 6 3 3 4 6 4 2 4 4 7 5 7 11 13 12 11 11 10 10
23 22 21 20 19 16 11 9 9 5 7 15 14 10 12 11 4 3 4 1 2 2 1 2 1 3 2 1 5 8 6 2 2 4 6 15 11 5 5 8 5 4 3 4 4 6 4 7 9 7 5 4 6 7 6 7 4 6 3 1 0 3 3 4 5 3 4 4 2 6 1 2 3 5 5 4 2 3 4 3 5 10 12 11 10 10 9 8
23 22 21 21 19 12 8 12 13 6 8 16 15 12 10 6 4 4 1 2 2 2 1 0 0 2 3 3 3 7 6 1 2 1 3 6 7 2 1 3 3 2 2 1 3 5 6 5 5 4 4 6 5 5 5 7 6 3 2 4 5 5 4 3 3 4 4 2 5 6 2 5 1 5 3 2 2 4 5 1 1 7 10 10 10 9 9 9
24 22 20 20 18 11 6 10 10 3 8 17 15 9 6 4 4 4 3 3 2 3 1 0 2 2 5 6 4 5 6 3 2 4 1 3 5 2 2 2 2 2 3 4 3 5 6 2 3 3 4 5 4 0 2 1 2 2 4 4 4 4 5 5 4 4 3 2 6 6 1 7 2 5 4 5 5 2 7 6 6 8 8 8 8 8 8 8
24 22 20 20 19 15 12 11 9 6 12 15 10 5 4 4 1 2 3 3 2 2 1 1 3 1 3 4 4 5 5 4 3 6 5 3 4 5 4 4 3 2 3 3 2 5 5 3 4 4 2 4 5 1 4 4 4 5 4 5 4 2 4 3 3 2 1 3 5 4 2 4 2 5 6 7 8 2 3 6 9 10 8 8 8 8 7 6
25 24 22 19 18 19 21 19 16 13 13 10 5 4 5 4 2 4 4 3 2 2 2 4 4 2 1 2 3 4 5 5 4 5 7 4 4 5 5 5 6 5 1 4 1 2 3 5 5 3 3 1 6 4 2 3 1 4 3 4 4 2 3 1 3 1 1 3 4 2 3 1 3 3 4 5 4 1 4 6 7 9 10 9 8 8 8 7
26 23 21 18 17 21 22 19 16 14 10 6 4 5 5 2 3 4 4 3 4 4 3 4 6 6 2 1 2 4 4 4 5 7 6 4 4 3 4 4 5 6 3 2 2 2 1 4 3 2 2 1 4 5 7 4 2 3 4 5 4 4 4 3 3 2 2 3 4 4 2 2 2 2 4 3 6 7 8 8 8 9 8 8 9 9 9 8
26 21 20 19 19 22 20 15 15 12 5 3 5 4 3 4 3 2 3 3 2 3 4 6 5 3 3 3 4 6 5 4 3 5 5 4 4 5 4 4 5 5 4 2 2 2 3 4 6 4 4 6 5 4 5 6 2 3 2 6 2 4 6 3 3 5 4 1 2 2 0 3 3 2 3 4 8 9 10 10 11 10 7 8 9 8 8 7
26 22 18 15 17 20 16 13 13 11 5 5 4 2 4 4 3 2 3 2 1 3 7 9 4 2 1 3 5 5 2 3 3 2 2 2 4 5 4 4 6 7 6 4 2 1 2 4 7 4 1 3 5 4 5 5 2 1 2 2 4 4 7 5 1 2 4 3 2 1 1 3 2 2 4 5 7 8 9 10 11 10 7 8 8 6 6 6
26 21 12 12 19 18 13 10 11 12 7 5 4 4 4 3 4 4 3 1 3 4 5 5 3 2 1 0 3 5 3 2 2 2 2 2 1 3 3 4 4 8 9 5 2 2 4 2 6 3 4 4 3 2 2 3 5 3 1 3 2 3 4 4 2 2 4 2 4 1 2 1 1 1 4 6 4 3 4 7 11 11 9 9 7 7 7 6
22 14 10 15 19 16 12 9 14 14 6 4 2 4 3 2 3 4 4 4 4 5 3 2 3 3 3 2 3 3 3 4 3 1 3 2 2 3 2 4 2 4 7 6 2 1 4 0 7 3 2 5 5 5 4 4 2 5 4 2 3 3 1 1 2 1 2 2 3 2 0 1 1 3 4 4 0 1 3 2 6 8 9 9 7 7 8 7
11 6 6 9 9 9 16 13 14 9 5 2 3 3 3 3 5 5 6 5 4 3 3 4 3 2 3 4 4 1 0 3 2 0 1 2 3 3 4 4 3 2 4 7 4 1 3 3 4 5 2 3 5 5 4 6 5 3 2 3 3 3 3 1 2 2 3 2 2 1 2 1 3 4 3 4 4 6 5 3 3 4 5 7 7 7 7 7
3 3 3 9 15 8 21 15 10 5 3 4 3 3 3 4 5 7 7 5 3 3 4 5 3 1 2 4 4 3 2 4 3 1 1 0 1 2 5 5 3 1 5 8 4 1 3 3 3 5 5 3 2 2 3 3 4 4 3 1 1 2 1 2 1 1 3 3 2 1 1 3 5 3 2 5 3 6 9 7 4 3 4 4 6 7 6 6
3 3 4 10 14 14 23 11 3 3 3 3 2 3 4 4 5 8 9 7 5 5 5 5 3 3 4 3 2 3 4 4 5 2 1 1 1 0 4 5 4 3 4 7 4 1 2 2 3 2 3 2 2 3 3 2 2 2 2 2 3 3 3 3 1 2 1 3 3 4 2 5 5 2 3 4 3 5 8 10 7 4 5 4 4 6 6 6
2 1 7 15 11 18 17 5 1 1 1 4 3 3 4 4 5 8 8 7 6 6 5 4 2 2 4 3 3 3 3 4 6 3 2 1 1 1 2 7 7 5 3 4 2 1 3 3 3 0 1 2 5 3 3 4 1 3 2 2 3 2 4 6 3 3 0 1 1 4 3 5 5 3 5 5 4 6 7 9 8 5 5 5 4 5 6 6
1 3 10 20 13 13 9 5 1 2 3 4 3 5 5 4 6 6 6 6 6 4 2 0 2 2 1 1 0 1 2 1 4 4 3 3 1 3 3 7 6 5 4 2 2 2 2 4 3 2 3 3 4 2 4 7 7 5 3 4 4 2 1 4 5 3 2 1 1 3 1 4 5 3 3 4 5 6 5 7 8 7 5 5 6 5 5 5
2 4 7 18 19 6 5 2 2 3 5 3 2 4 4 5 6 7 6 6 5 3 1 1 3 3 1 1 2 3 4 2 3 3 3 5 4 6 5 3 4 3 1 1 3 0 1 1 3 3 3 5 6 5 6 6 5 2 2 4 4 4 5 3 2 3 3 1 3 5 2 5 5 3 2 6 8 8 6 6 7 7 6 5 5 5 5 5
3 2 3 11 17 9 3 2 2 3 3 2 3 4 4 4 5 6 5 1 5 4 3 4 6 5 3 3 2 3 6 5 2 3 1 3 4 5 6 2 3 3 2 2 4 3 2 2 3 4 3 0 1 1 2 3 3 2 3 5 5 5 6 3 2 4 2 1 2 5 4 4 4 3 6 8 9 8 6 6 6 6 6 5 5 6 5 5
2 3 3 6 9 7 1 3 3 3 3 2 2 3 3 3 4 4 2 3 6 6 6 7 8 7 6 5 4 5 8 6 3 3 3 2 2 1 1 3 4 4 6 7 5 4 3 2 3 6 6 5 4 4 3 0 2 3 5 7 5 4 5 4 4 3 3 2 2 2 5 3 1 3 5 6 8 9 6 7 7 5 6 6 6 6 5 5
2 2 4 3 4 4 3 5 7 6 4 1 1 3 2 2 4 4 2 4 5 5 6 9 11 8 5 4 5 6 7 6 6 5 4 4 3 3 5 5 5 4 6 6 4 4 5 2 1 5 4 4 5 2 2 2 3 3 6 7 5 4 5 6 4 0 3 4 2 5 2 5 1 3 2 1 5 9 7 7 7 7 7 6 5 6 6 5
3 0 3 2 2 2 3 5 7 7 7 4 2 3 6 6 6 6 4 2 5 6 4 7 12 12 10 6 5 5 6 6 7 6 5 5 4 4 6 4 4 5 5 4 3 4 6 1 2 4 3 2 3 3 4 5 4 3 5 5 4 5 6 6 3 1 4 4 3 2 6 6 2 6 6 5 2 4 5 3 4 3 3 3 3 4 5 5
3 1 3 3 1 1 3 6 7 5 8 8 5 6 9 9 8 7 6 3 5 8 6 5 8 11 12 10 6 4 5 4 4 5 5 5 4 3 4 4 5 6 5 4 3 3 4 1 1 4 4 3 4 5 7 7 6 5 5 5 3 4 6 6 3 3 7 5 4 6 10 6 3 4 4 5 5 4 6 6 7 7 6 6 6 5 4 3
2 1 4 3 2 3 3 5 5 4 8 9 6 6 7 9 9 8 8 8 5 6 6 6 6 8 10 11 9 6 4 3 2 2 3 6 5 3 3 2 3 5 6 4 2 3 4 1 1 4 4 4 4 5 7 7 6 6 7 7 5 5 6 5 3 4 7 6 4 8 10 5 4 4 4 5 6 8 10 9 9 8 7 8 8 6 4 3
4 3 3 1 2 5 5 5 6 4 6 8 6 6 7 8 8 6 7 10 7 5 4 4 5 6 7 10 11 6 4 2 1 3 4 4 4 2 1 1 1 3 4 3 2 3 3 1 1 5 4 3 3 5 5 5 7 7 7 9 8 6 6 4 4 4 4 5 4 7 7 2 5 4 4 6 9 11 10 8 7 7 7 8 8 7 6 5
9 3 3 1 2 6 4 4 6 6 4 7 7 8 7 7 7 5 4 7 8 7 4 4 6 5 6 9 8 5 5 5 5 5 5 5 5 4 2 3 2 1 1 1 2 1 3 3 2 4 3 3 3 4 5 5 6 4 3 5 5 3 7 6 7 9 5 4 4 4 3 2 5 4 6 8 10 10 9 7 6 6 7 8 7 6 7 7
Wind_Direction
325 323 319 317 315 313 313 311 310 309 310 309 307 309 309 309 308 309 310 308 308 306 307 308 307 308 307 309 311 315 318 313 313 302 246 259 264 218 193 188 140 149 190 215 243 280 290 268 257 249 268 316 215 236 253 210 175 112 124 176 227 231 229 204 138 329 318 307 316 311 327 85 43 320 352 48 69 81 54 33 54 52 66 100 116 126 132 134
325 323 319 316 313 311 311 310 310 308 308 307 307 308 307 307 305 307 308 307 307 306 308 307 306 306 307 312 315 318 319 314 306 281 256 258 252 200 199 191 152 162 190 210 228 224 221 248 267 250 166 245 242 233 250 249 168 145 155 193 230 220 240 253 148 293 298 292 312 304 318 35 132 247 331 71 95 93 75 40 63 81 83 94 112 122 130 135
323 321 317 313 310 309 308 307 306 304 304 305 306 306 307 307 306 306 306 307 308 309 306 304 305 305 311 311 315 323 318 318 298 266 264 246 228 204 196 190 179 206 233 233 239 223 215 260 318 335 160 238 262 228 233 267 255 190 169 220 249 223 255 282 232 252 254 266 307 306 319 4 305 285 15 113 113 110 120 130 104 108 112 111 116 122 131 133
322 319 316 313 310 309 307 305 303 302 302 302 303 304 306 306 306 306 306 308 307 309 305 305 308 305 310 309 316 327 317 323 284 258 243 209 219 204 196 193 192 218 237 237 241 234 236 273 318 332 219 248 261 220 211 237 256 211 170 212 242 223 251 263 243 249 260 268 265 260 348 352 311 328 16 132 110 130 179 170 148 139 135 130 132 131 132 126
320 317 316 312 308 307 304 302 300 300 299 301 302 302 304 305 305 306 305 307 306 307 308 306 307 304 308 313 319 321 326 41 266 280 251 206 203 198 198 194 197 217 225 228 236 236 249 258 311 335 238 241 244 222 229 226 218 248 229 226 240 233 245 258 250 250 258 278 284 307 31 319 309 348 328 43 141 218 216 175 150 144 144 140 139 132 125 118
319 318 316 311 309 306 302 301 299 298 297 297 298 299 302 303 303 307 306 307 306 305 309 307 310 313 314 319 315 289 344 114 268 287 251 204 186 192 194 196 199 209 215 219 224 206 222 209 151 200 223 232 213 203 239 231 176 238 265 250 250 240 234 255 250 237 237 261 284 294 191 234 6 348 320 51 190 232 158 137 135 136 135 130 127 124 121 119
320 319 315 311 309 304 301 301 298 297 296 295 296 297 299 301 302 303 302 303 302 304 307 309 314 318 323 328 291 217 149 260 272 263 230 208 182 188 190 194 196 202 207 204 195 177 162 133 188 208 215 245 220 212 244 242 174 206 258 261 254 241 234 247 240 233 237 232 236 231 297 255 33 318 327 54 41 118 113 120 122 119 115 113 111 110 114 116
320 320 315 313 307 302 302 301 299 297 296 296 297 297 298 302 302 301 301 301 303 306 305 309 318 319 330 341 224 255 235 252 273 226 212 209 183 186 190 190 196 202 199 199 191 161 136 212 230 224 213 234 217 228 259 309 227 209 240 253 252 246 238 241 233 233 249 243 235 224 228 246 221 159 87 81 93 105 114 117 116 113 108 108 108 110 116 117
322 320 316 313 306 303 302 300 300 296 296 299 300 299 296 297 299 299 299 300 300 301 301 306 315 317 327 325 286 315 259 244 272 189 197 204 192 188 191 193 196 196 195 205 195 155 164 213 227 209 225 247 230 251 257 265 260 221 228 247 251 254 249 250 246 237 257 255 227 225 238 258 233 130 66 79 114 111 113 115 117 116 112 111 113 119 126 123
324 320 316 312 305 302 301 300 298 296 300 302 302 302 301 304 304 300 296 297 297 297 301 303 306 317 320 302 130 297 273 248 176 184 190 198 195 191 195 197 192 190 195 201 193 193 198 206 217 211 277 279 244 264 235 194 247 255 254 261 249 249 246 245 257 264 288 269 212 215 238 259 247 124 88 259 132 123 118 118 122 121 119 118 118 124 130 131
328 323 317 308 302 300 299 299 296 297 301 302 305 307 308 311 309 305 301 298 299 298 297 299 311 332 322 316 132 222 258 231 189 175 184 194 194 197 194 192 190 192 197 193 204 211 216 235 247 333 286 264 284 296 261 219 293 292 277 280 269 265 259 243 265 280 303 281 224 204 240 273 336 128 157 173 154 134 125 124 127 124 122 120 120 127 134 135
331 325 317 309 305 302 297 296 295 296 301 303 306 307 309 312 313 310 306 301 301 302 294 293 318 353 328 315 209 233 212 190 196 164 171 179 191 204 190 187 195 200 201 196 234 234 236 247 248 250 247 240 325 313 287 283 310 291 280 280 290 333 314 279 279 264 215 282 244 162 307 303 306 185 156 154 154 138 125 127 131 127 125 122 124 130 135 135
335 328 320 315 311 303 295 292 293 296 301 304 303 307 313 317 319 314 310 307 299 298 280 253 239 288 336 260 240 249 248 263 224 185 173 137 141 192 186 191 204 213 214 213 241 251 249 251 235 221 232 173 268 275 302 309 311 293 311 306 310 359 317 263 241 265 263 237 186 114 310 273 281 153 152 151 150 139 127 136 139 134 132 132 137 136 138 143
340 334 326 320 313 303 296 291 292 297 301 303 304 310 320 322 318 313 310 305 294 286 242 180 137 146 156 259 268 278 292 294 225 199 178 149 168 196 197 206 213 223 227 227 245 261 262 265 263 228 232 172 227 299 326 328 335 306 329 355 8 0 284 258 217 250 276 236 151 129 239 258 274 145 158 158 152 144 136 147 147 142 144 142 145 141 146 158
345 339 332 326 318 308 302 296 294 298 299 301 306 316 324 322 315 314 311 301 275 216 207 183 189 186 357 278 282 294 296 281 204 202 183 170 201 215 218 217 219 227 232 236 248 261 264 273 286 173 280 297 44 3 333 331 334 342 344 324 342 244 270 292 260 202 223 245 140 152 226 268 243 162 165 158 154 145 138 154 152 147 149 145 148 144 149 164
351 346 341 334 326 319 312 307 302 300 300 302 311 323 323 316 315 311 306 299 246 192 177 179 205 189 356 281 294 303 261 195 196 199 189 194 210 218 230 229 231 233 233 239 249 265 272 277 258 167 288 323 57 58 5 2 337 344 60 263 284 265 292 312 289 217 209 228 163 181 207 285 253 176 166 156 158 148 141 159 156 151 152 147 150 149 150 158
357 354 349 342 335 328 320 314 308 302 302 306 315 321 312 302 298 286 296 301 177 182 179 264 273 199 264 278 301 294 230 197 201 197 196 211 218 224 233 236 237 232 236 251 260 276 294 293 226 215 8 2 86 88 38 353 306 317 357 270 257 243 264 286 286 258 206 200 208 206 201 256 268 163 163 158 161 154 148 159 155 151 150 148 152 153 158 163
0 358 356 350 340 333 328 320 315 308 306 314 319 313 298 284 275 268 184 139 126 129 234 286 317 269 261 271 280 268 205 200 207 203 207 211 214 224 226 225 224 209 270 299 276 277 315 324 46 62 347 359 60 92 107 238 215 248 279 291 280 258 246 252 267 259 182 190 205 192 202 244 231 144 164 171 170 160 150 151 150 151 149 153 160 159 167 173
1 360 359 355 345 335 331 326 320 312 312 317 316 306 294 278 265 183 139 140 123 103 264 232 189 166 268 247 248 270 240 207 202 204 209 207 208 220 224 233 226 134 102 355 293 281 182 317 25 90 286 285 220 154 183 222 215 230 237 195 233 276 267 252 260 241 159 170 193 170 186 231 241 168 177 182 173 150 139 143 146 153 153 157 165 165 174 182
1 360 358 357 351 338 328 326 320 316 320 322 321 314 299 7 44 42 161 188 205 219 238 206 189 236 286 280 284 301 272 218 199 200 207 204 198 204 216 230 211 125 154 168 249 288 129 166 259 218 222 226 224 202 205 236 235 231 216 182 252 293 304 291 289 257 144 142 185 166 149 156 282 198 173 151 141 136 139 145 148 154 160 163 166 169 178 192
357 357 356 356 353 343 328 324 318 315 324 323 326 333 244 184 99 320 266 232 233 226 239 225 200 230 260 270 282 297 305 227 205 203 206 202 184 171 218 202 169 215 232 181 209 321 95 178 240 229 218 218 226 215 210 239 248 220 87 356 315 327 293 298 325 357 88 115 134 131 121 142 237 227 148 138 148 164 157 154 160 164 169 170 166 168 174 184
352 353 353 353 352 347 332 318 314 317 322 316 311 276 244 244 234 302 309 270 258 220 227 238 219 240 251 257 266 271 295 242 220 222 203 192 170 177 227 177 162 224 258 147 183 334 64 229 243 237 222 216 253 244 201 224 251 7 63 50 317 298 295 305 330 359 33 92 270 218 125 190 252 277 151 153 160 181 175 167 169 167 166 173 173 168 165 161
347 347 349 350 349 347 333 316 316 317 318 310 280 231 276 293 296 309 315 291 284 229 212 231 221 243 249 255 260 244 236 231 216 234 197 173 168 178 179 180 185 223 252 164 186 199 218 241 242 237 205 176 255 252 161 73 0 298 262 109 270 276 322 308 312 345 15 66 139 125 88 274 292 343 128 159 164 176 181 174 169 168 170 178 181 169 160 160
344 343 345 345 344 346 336 321 318 318 325 313 279 277 315 323 314 309 310 227 290 270 215 218 206 227 238 243 247 209 208 217 198 219 191 167 155 160 171 184 178 231 241 198 184 198 239 250 257 254 199 179 208 227 149 85 355 286 234 176 196 234 223 247 288 342 358 4 54 76 30 327 346 10 346 146 154 169 175 169 172 188 180 171 176 171 164 164
343 340 340 341 341 342 335 324 315 340 339 303 280 312 338 338 326 300 291 65 294 284 238 216 193 227 237 227 219 207 197 206 205 196 179 171 164 153 185 178 159 227 236 216 190 215 251 254 259 261 209 180 181 208 184 143 178 307 256 205 195 194 226 261 304 18 28 350 337 78 50 297 333 353 292 315 167 179 181 178 180 189 182 167 175 178 168 162
342 338 337 338 336 336 336 326 305 340 327 285 287 333 339 334 326 232 183 34 307 273 254 187 168 215 230 203 183 183 152 219 214 180 172 182 180 162 171 192 188 220 216 211 199 219 255 242 213 197 177 161 163 194 206 151 127 297 248 200 177 161 178 240 301 47 77 291 298 85 119 257 320 326 280 278 171 184 193 193 184 175 180 185 185 182 169 162
340 337 335 333 334 337 336 303 308 323 305 287 317 335 334 333 321 206 116 29 306 260 203 204 199 186 204 192 161 142 177 239 206 173 177 185 184 158 182 220 223 217 195 90 355 262 268 254 185 167 138 136 141 196 216 141 119 231 245 189 153 135 135 149 117 91 191 238 325 17 97 138 305 288 261 149 126 205 220 210 193 181 184 184 185 186 172 165
336 336 333 327 331 333 320 296 306 310 296 321 332 326 332 339 317 178 76 45 267 277 143 223 244 170 200 198 157 169 217 199 125 216 192 181 179 147 196 224 191 199 202 103 273 268 271 232 197 171 117 130 171 213 202 137 133 238 240 203 170 153 151 140 107 91 13 49 334 319 47 93 279 280 285 67 103 216 219 196 184 183 183 178 180 183 168 160
332 332 330 323 323 324 317 300 289 285 327 344 348 331 334 345 340 79 75 159 273 315 166 184 179 185 240 171 166 208 232 122 145 248 181 173 182 139 191 220 183 202 225 142 199 259 255 220 200 157 125 181 217 222 182 143 198 246 222 208 13 94 113 103 100 92 47 57 260 275 352 98 270 290 317 7 62 203 204 199 187 169 166 166 164 167 158 152
329 327 326 321 317 317 317 296 275 271 339 348 347 336 342 6 53 69 54 247 268 271 216 117 175 175 180 162 193 228 230 195 178 175 98 170 191 139 185 210 140 183 279 73 194 250 273 245 196 148 161 189 196 210 187 169 202 241 55 39 21 19 23 49 75 85 68 14 257 254 172 115 286 289 279 288 262 184 154 130 103 129 144 153 150 153 155 155
324 322 319 314 308 302 299 288 270 262 339 341 342 344 7 32 64 100 208 248 268 275 315 316 255 178 166 176 195 225 227 238 150 131 137 183 175 202 317 336 44 54 356 350 306 293 324 317 214 219 191 158 121 175 266 193 145 89 69 65 47 357 5 18 6 48 91 251 263 262 143 102 115 272 260 279 293 184 148 135 112 117 134 138 133 140 146 150
322 318 313 305 298 280 256 253 259 290 320 332 345 10 58 49 25 170 236 299 315 258 299 318 270 214 182 192 201 207 206 225 177 152 181 174 160 196 214 205 186 48 334 285 295 323 332 274 254 283 232 146 111 24 318 345 45 84 90 77 75 6 12 12 327 2 156 235 252 255 70 88 221 246 256 290 311 304 150 130 125 127 126 121 121 125 125 128
321 317 310 301 290 271 257 260 272 287 306 325 0 42 79 87 237 222 239 284 246 243 349 339 305 289 189 196 230 216 190 211 202 165 185 172 153 202 227 214 170 129 207 218 217 317 317 305 303 333 317 147 119 123 256 294 46 134 153 111 110 107 68 315 275 305 248 259 269 281 79 57 283 271 269 301 331 46 88 79 101 112 111 111 109 108 106 103
322 319 312 301 285 269 262 264 267 271 291 326 37 65 91 133 241 235 235 250 262 299 345 314 299 313 305 219 247 231 197 217 203 167 179 158 131 204 246 249 182 138 138 184 201 183 158 313 290 182 256 213 139 162 180 167 132 190 173 128 134 145 139 193 211 186 224 255 295 337 56 157 204 268 296 7 52 75 83 76 77 77 84 99 93 88 90 88
324 320 312 299 281 268 259 252 251 250 265 23 66 85 138 204 240 237 233 241 270 304 318 300 286 296 303 314 299 251 201 215 226 169 165 162 169 199 202 219 206 148 118 165 224 187 158 247 257 242 221 173 164 194 160 107 56 270 112 95 148 180 151 156 174 175 176 160 304 319 209 208 195 258 313 64 83 82 87 89 85 75 63 76 79 76 80 80
326 323 316 294 275 267 254 243 235 216 178 83 81 152 196 213 222 216 226 228 307 329 331 322 300 187 273 330 317 293 191 181 232 200 193 178 188 211 206 208 195 161 146 163 209 179 143 250 275 315 346 181 187 192 152 122 142 280 47 108 224 177 131 120 177 191 101 94 272 256 194 282 333 347 354 52 89 105 116 117 108 107 97 85 87 89 85 82
328 326 315 279 270 261 247 237 205 176 142 89 117 204 220 218 222 230 260 298 332 332 336 325 294 209 155 351 313 330 352 294 256 215 255 304 294 272 266 253 211 177 170 154 173 186 139 259 289 7 36 304 270 132 119 133 129 115 151 203 202 66 87 109 125 356 56 108 265 272 174 233 51 259 336 20 48 89 120 131 123 124 123 112 114 113 103 103
322 322 296 277 273 247 229 218 176 151 106 85 155 228 227 224 238 245 285 309 321 324 317 279 257 222 153 159 264 329 350 310 307 224 243 247 249 281 307 289 281 169 164 132 105 187 121 91 296 332 36 311 338 54 24 332 60 125 174 181 97 91 330 48 112 135 103 165 274 320 195 141 133 235 301 353 335 87 29 61 112 126 131 124 119 108 97 96
317 328 288 308 324 213 196 179 156 131 73 129 190 246 234 252 268 264 276 289 287 287 275 242 233 234 166 168 195 177 39 269 270 269 237 230 241 283 348 329 330 67 116 108 119 185 99 114 273 299 337 340 356 47 31 328 337 38 67 26 53 134 163 147 135 153 139 165 235 330 5 313 237 239 289 299 230 153 107 56 57 100 121 121 120 110 96 95
337 345 250 357 10 173 171 150 132 108 96 174 192 222 250 273 275 273 270 267 259 248 250 235 207 231 222 194 191 170 165 231 256 266 184 316 315 318 341 340 309 275 82 77 87 111 59 100 213 292 335 34 21 26 35 343 324 348 356 0 40 67 101 130 105 90 118 138 174 133 35 276 256 247 277 285 247 152 133 126 123 129 121 118 122 116 109 107
9 6 224 355 10 156 152 124 126 133 147 206 214 215 259 279 273 283 279 268 263 241 235 235 207 189 203 207 216 183 159 201 240 233 153 33 76 171 324 348 343 314 70 60 39 80 76 118 166 291 348 52 231 262 9 333 248 220 243 204 133 113 110 114 18 316 108 130 160 145 153 265 260 215 233 247 190 145 139 133 133 137 128 124 122 117 116 115
36 357 259 343 12 154 142 81 238 117 147 205 211 224 250 269 265 281 284 279 271 240 229 242 246 227 210 207 217 194 147 171 205 200 133 93 113 195 345 14 8 352 65 78 334 203 125 102 100 92 246 217 243 243 44 14 19 114 79 39 75 102 115 124 183 257 73 88 152 117 115 264 261 207 218 229 167 132 133 128 122 116 115 113 103 98 100 107
63 270 287 347 19 145 131 37 324 327 283 217 229 238 236 257 263 277 288 289 278 246 216 301 338 339 285 266 126 100 30 121 171 155 131 105 357 277 339 25 26 13 41 72 291 304 68 81 71 328 291 299 303 330 43 30 41 59 16 15 42 20 90 134 169 177 117 72 147 96 76 264 275 279 223 192 114 93 93 107 113 111 102 103 106 103 102 109
309 263 288 353 12 78 112 66 180 242 260 255 282 251 244 257 253 261 277 294 302 289 128 61 0 349 313 348 60 77 39 44 128 104 135 158 181 222 250 356 60 74 37 195 188 105 33 100 91 56 2 345 346 355 4 8 26 43 314 351 32 28 28 41 55 77 76 220 150 121 178 246 274 321 53 86 84 83 76 77 97 109 105 102 107 108 114 119
326 305 270 341 2 32 109 198 204 216 256 289 289 267 266 263 249 240 234 310 356 5 43 21 9 14 5 10 44 65 56 78 117 25 11 178 165 188 209 201 107 111 133 159 137 109 106 124 107 109 123 215 292 294 309 332 345 334 328 354 16 36 44 51 49 64 94 215 101 118 182 248 294 26 81 92 91 90 87 89 94 107 118 119 120 125 136 141
359 0 330 327 357 32 99 271 344 0 318 314 288 278 270 273 287 269 206 64 28 36 48 19 18 35 17 17 49 32 33 60 78 40 19 7 36 51 114 104 90 96 107 100 89 87 88 79 100 125 146 175 191 213 239 352 20 332 327 346 3 23 47 83 84 82 150 120 39 199 179 163 56 77 105 126 125 119 125 129 125 133 143 146 150 152 151 148
44 19 7 336 325 4 357 338 3 356 319 295 255 301 320 319 328 341 20 53 33 44 61 28 25 39 6 3 63 29 3 34 48 32 5 4 29 26 30 63 70 72 93 85 70 88 85 52 98 116 136 176 174 192 305 33 49 354 340 349 359 18 48 75 72 140 155 98 333 275 135 117 179 344 16 232 165 145 147 150 152 161 159 155 162 157 144 133
39 47 359 350 314 354 0 334 332 329 337 1 23 4 11 14 20 13 356 50 41 31 60 39 29 36 20 15 78 42 356 31 38 7 346 354 5 15 13 16 16 32 65 44 17 92 103 137 188 120 102 107 100 55 38 59 62 44 27 4 358 30 64 84 72 213 138 124 219 234 81 89 322 338 353 329 322 122 121 111 114 114 108 102 101 116 120 119
28 27 334 350 358 276 268 299 303 323 2 11 20 30 28 27 34 28 4 12 29 19 43 63 41 43 35 30 70 63 14 40 26 346 352 356 346 19 30 2 344 3 42 40 10 71 99 161 199 105 82 42 37 41 51 56 50 44 32 11 31 73 83 93 84 79 92 100 158 126 88 71 359 342 347 342 359 60 71 54 50 47 47 62 68 73 72 70
22 351 329 350 355 313 310 332 333 9 21 14 18 29 34 33 34 36 31 37 42 14 30 63 52 49 49 43 58 66 49 83 102 308 338 350 343 14 46 20 328 344 14 39 3 23 72 183 242 84 70 346 358 48 58 62 69 59 26 3 20 60 59 58 47 53 78 79 84 91 80 47 347 335 341 2 35 60 57 48 45 41 44 57 58 53 43 20
346 266 321 14 10 351 0 8 7 29 22 6 7 18 32 38 33 39 41 41 55 46 34 81 65 41 42 41 41 33 358 2 237 255 268 292 303 314 341 315 334 358 1 19 8 20 73 122 352 69 76 303 331 57 55 62 70 58 25 357 357 33 62 60 28 26 98 131 96 70 71 8 312 329 13 35 52 62 59 48 44 39 39 51 52 38 26 9
356 319 343 90 83 6 0 22 26 41 24 347 352 15 33 39 35 54 57 25 33 48 57 96 92 65 43 32 16 338 305 297 284 273 253 243 260 265 257 271 283 109 107 52 44 46 102 105 83 91 96 288 307 65 64 57 48 16 332 323 324 59 84 70 32 18 37 116 108 87 118 255 301 351 56 58 57 64 63 52 49 43 35 39 43 39 33 25